Location: Tumbler Ridge
(55.1167°N, 121.0000°W)
Time: 20:45:47
(UTC-07:00)

Daily predictions for brighter satellites

Satellite Brightness Start Highest point End
(mag) Time Altitude Azimuth Time Altitude Azimuth Time Altitude Azimuth
CENTAUR R/B 4.1 22:35:20 10° W 22:41:55 45° N 22:49:16 10° ENE
Cosmos 1862 Rocket 3.7 22:40:11 10° N 22:44:34 66° ENE 22:48:53 10° SSE
SAR-Lupe-2 3.6 22:41:03 10° SSE 22:44:37 76° ENE 22:48:14 10° NNW
BREEZE-M DEB (TANK) 3.6 22:44:45 10° SW 22:46:06 15° SSW 22:47:46 10° SSE
Cosmos 1726 3.2 22:43:35 10° NNW 22:47:10 42° W 22:50:46 10° SSW
Cosmos 1898 Rocket 3.7 22:43:04 10° S 22:48:07 54° ESE 22:53:13 10° NE
CZ-4B R/B 4.0 22:47:18 10° ENE 22:48:22 11° NE 22:49:27 10° NE
ARGOS 4.0 22:43:30 10° S 22:48:43 49° W 22:53:58 10° NNW
Cosmos 2151 4.2 22:45:41 10° SW 22:49:42 43° WNW 22:53:46 10° N
Cosmos 2150 Rocket 4.2 22:47:32 10° S 22:52:54 61° ESE 22:58:19 10° NNE
CARTOSAT-1 3.7 22:49:11 10° S 22:53:30 77° WSW 22:57:51 10° NNW
Sich 1 3.1 22:50:45 10° SSW 22:55:11 87° W 22:59:37 10° NNE
USA 234 3.5 22:49:22 10° E 22:55:55 77° N 23:02:29 10° W
Lacrosse 4 Rocket 1.8 22:51:37 10° NW 22:55:59 65° NE 23:00:25 10° SE
Cosmos 1271 Rocket 3.5 22:53:40 10° NNW 22:57:21 47° W 23:01:04 10° S
Cosmos 1633 Rocket 3.1 22:53:15 10° SSW 22:57:39 86° W 23:02:03 10° N
SeaSat 1 2.8 22:52:59 10° SE 22:57:51 61° NE 23:02:44 10° NNW
Cosmos 192 4.4 22:53:50 10° NNW 22:58:47 87° WSW 23:03:43 10° SSE
Cosmos 1980 4.0 22:53:42 10° NW 22:59:19 65° WSW 23:04:53 10° SSE
DMSP B5D2-2 4.3 22:58:19 10° NNE 23:03:30 57° ESE 23:08:37 10° S
Aureole 2 Rocket 4.2 23:02:38 10° N 23:04:59 21° NE 23:07:29 10° ESE
USA 229 DEB 4.0 22:58:16 10° WSW 23:05:15 79° NW 23:12:22 10° NE
USA 229 4.0 22:58:22 10° SW 23:05:21 79° NW 23:12:29 10° NE
SL-14 R/B 3.8 23:02:01 10° SSW 23:05:57 62° WNW 23:09:58 10° N
Cosmos 1703 3.2 23:02:06 10° S 23:06:00 83° ESE 23:09:57 10° NNE
Cosmos 2058 4.1 23:05:33 10° SW 23:09:27 42° WNW 23:13:24 10° N
Cosmos 2219 3.4 23:05:07 10° SW 23:10:53 82° NW 23:16:41 10° NNE
Cosmos 2237 Rocket 2.6 23:06:31 10° NW 23:12:08 58° WSW 23:17:42 10° SSE
Meteor 1-4 Rocket 4.2 23:10:35 10° NNW 23:13:57 30° W 23:17:14 10° SSW
Iridium 2 3.9 23:12:17 10° SSW 23:16:08 72° W 23:20:00 10° N
ERBS 4.3 23:18:46 12° SSE 23:20:04 14° SE 23:21:51 10° E
CZ-4C R/B 4.4 23:19:14 10° SE 23:22:21 30° ENE 23:25:34 10° N
Cosmos 2082 4.2 23:17:29 10° S 23:22:53 44° ESE 23:28:18 10° NE
NOSS 3-1 (A) 3.6 23:18:32 10° SSW 23:24:31 61° SE 23:31:16 10° NE
COSMOS 2455 3.0 23:20:52 10° NW 23:26:54 72° SW 23:32:41 11° SSE
Cosmos 1933 3.4 23:24:41 10° N 23:28:47 80° ENE 23:32:31 12° SSE
COS B Rocket 3.7 23:26:15 10° N 23:29:43 47° E 23:33:10 12° SSE
ALOS 2 3.6 23:26:00 10° SE 23:30:01 37° ENE 23:34:05 10° N
Cosmos 1626 2.1 23:30:22 10° S 23:34:08 90° WSW 23:37:56 10° NNE
Cosmos 220 Rocket 4.1 23:37:14 10° SSW 23:41:40 86° WNW 23:46:10 10° NNE
Okean 1-7 3.2 23:37:51 10° N 23:42:09 66° ENE 23:45:52 13° SSE
BREEZE-M DEB (TANK) 4.1 23:45:34 10° SE 23:45:34 10° SE 23:45:58 10° ESE
Cosmos 1703 Rocket 3.6 23:41:03 10° NNW 23:45:26 80° W 23:49:20 13° S
ATLAS 2AS CENTAUR R/B 3.4 23:40:07 10° SSW 23:47:22 47° ESE 23:55:03 10° NE
Cosmos 1937 Rocket 3.7 23:43:07 10° SSW 23:48:21 78° WNW 23:53:35 10° NNE
Cosmos 1470 Rocket 4.1 23:44:13 10° SSW 23:48:28 56° WNW 23:52:45 10° N
Cosmos 1933 Rocket 4.2 23:45:23 10° SSW 23:49:47 57° WNW 23:54:14 10° N
Cosmos 1346 3.8 23:47:05 10° SSW 23:50:04 51° WNW 23:53:03 10° N
Cosmos 2221 Rocket 3.8 23:46:33 10° NNW 23:51:08 75° W 23:55:11 13° S
